K5WPH Weather Reports


Display with metric or nautical units.
time (UTC)temp
F
wind
direction
speed
MPH
gust
MPH
rain 1hr
in
rain 24hr
in
rain mn
in
humidity
%
barometer
mb
20260510234228 86 359 0.0 0.0 0.00 0.00 0.00 0
20260510233729 86 359 0.0 0.0 0.00 0.00 0.00 0
20260510233227 86 270 0.0 0.0 0.00 0.00 0.00 0
20260510232728 85 270 0.0 0.0 0.00 0.00 0.00 0
20260510232227 84 270 0.0 0.0 0.00 0.00 0.00 0
20260510231727 84 359 0.0 0.0 0.00 0.00 0.00 0
20260510231227 84 359 0.0 0.0 0.00 0.00 0.00 0
20260510230727 84 359 0.0 0.0 0.00 0.00 0.00 0
20260510230229 85 359 2.0 0.0 0.00 0.00 0.00 0
20260510225728 85 359 0.0 0.0 0.00 0.00 0.00 0
20260510225227 84 359 0.0 0.0 0.00 0.00 0.00 0
20260510224728 84 359 0.0 0.0 0.00 0.00 0.00 0
20260510224227 84 359 0.0 0.0 0.00 0.00 0.00 0
20260510223728 84 359 0.0 0.0 0.00 0.00 0.00 0
20260510222728 84 359 0.0 0.0 0.00 0.00 0.00 0
20260510222227 85 359 0.0 0.0 0.00 0.00 0.00 0
20260510221727 86 277 0.0 0.0 0.00 0.00 0.00 0
20260510221228 88 309 0.0 0.0 0.00 0.00 0.00 0
20260510220728 89 62 5.0 0.0 0.00 0.00 0.00 0
20260510220228 90 62 0.0 0.0 0.00 0.00 0.00 0
20260510215727 91 359 0.0 0.0 0.00 0.00 0.00 0
20260510215228 91 359 0.0 0.0 0.00 0.00 0.00 0
20260510214728 92 359 0.0 0.0 0.00 0.00 0.00 0
20260510213727 93 359 0.0 0.0 0.00 0.00 0.00 0
20260510213227 95 359 0.0 0.0 0.00 0.00 0.00 0
20260510212728 95 359 0.0 0.0 0.00 0.00 0.00 0
20260510212228 95 359 0.0 0.0 0.00 0.00 0.00 0
20260510211727 95 359 0.0 0.0 0.00 0.00 0.00 0
20260510211229 94 359 0.0 0.0 0.00 0.00 0.00 0
20260510210728 93 359 0.0 0.0 0.00 0.00 0.00 0
20260510210229 93 359 0.0 0.0 0.00 0.00 0.00 0
20260510205728 93 359 0.0 0.0 0.00 0.00 0.00 0
20260510205320 93 359 0.0 0.0 0.00 0.00 0.00 0
20260510205317 95 359 0.0 0.0 0.00 0.00 0.00 0
20260510205227 93 359 0.0 0.0 0.00 0.00 0.00 0
20260510204727 93 359 0.0 0.0 0.00 0.00 0.00 0
20260510204227 95 359 0.0 0.0 0.00 0.00 0.00 0
20260510203728 95 359 0.0 0.0 0.00 0.00 0.00 0
20260510203227 95 359 0.0 0.0 0.00 0.00 0.00 0
20260510202727 94 359 0.0 0.0 0.00 0.00 0.00 0
20260510202227 94 359 0.0 0.0 0.00 0.00 0.00 0
20260510201727 94 359 0.0 0.0 0.00 0.00 0.00 0
20260510201228 95 359 0.0 0.0 0.00 0.00 0.00 0
20260510200727 95 359 0.0 0.0 0.00 0.00 0.00 0
20260510200228 95 359 0.0 0.0 0.00 0.00 0.00 0
20260510195728 94 359 0.0 0.0 0.00 0.00 0.00 0
20260510195228 95 359 0.0 0.0 0.00 0.00 0.00 0
20260510194728 94 359 0.0 0.0 0.00 0.00 0.00 0
20260510194228 94 359 0.0 0.0 0.00 0.00 0.00 0
20260510193731 95 359 0.0 0.0 0.00 0.00 -81.82 0
20260510193727 95 359 0.0 0.0 0.00 0.00 0.00 0
20260510193228 95 359 0.0 0.0 0.00 0.00 0.00 0
20260510192728 94 359 0.0 0.0 0.00 0.00 0.00 0
20260510192228 94 359 0.0 0.0 0.00 0.00 0.00 0
20260510191727 94 359 0.0 0.0 0.00 0.00 0.00 0
20260510191227 94 359 0.0 0.0 0.00 0.00 0.00 0
20260510190727 93 359 0.0 0.0 0.00 0.00 0.00 0
20260510190228 92 359 0.0 0.0 0.00 0.00 0.00 0
20260510185727 92 359 0.0 0.0 0.00 0.00 0.00 0
20260510185228 92 359 0.0 0.0 0.00 0.00 0.00 0
20260510184727 92 359 0.0 0.0 0.00 0.00 0.00 0
20260510184228 91 359 0.0 0.0 0.00 0.00 0.00 0
20260510183728 90 359 0.0 0.0 0.00 0.00 0.00 0
20260510183228 90 359 0.0 0.0 0.00 0.00 0.00 0
20260510182228 89 359 0.0 0.0 0.00 0.00 0.00 0
20260510181727 89 359 0.0 0.0 0.00 0.00 0.00 0
20260510181228 89 359 0.0 0.0 0.00 0.00 0.00 0
20260510180728 90 359 0.0 0.0 0.00 0.00 0.00 0
20260510180227 89 359 0.0 0.0 0.00 0.00 0.00 0
20260510175727 89 359 0.0 0.0 0.00 0.00 0.00 0
20260510175227 89 359 0.0 0.0 0.00 0.00 0.00 0
20260510174727 89 252 0.0 0.0 0.00 0.00 0.00 0
20260510174227 88 359 0.0 0.0 0.00 0.00 0.00 0
20260510173727 88 359 0.0 0.0 0.00 0.00 0.00 0
20260510173227 88 359 3.0 0.0 0.00 0.00 0.00 0
20260510172727 88 359 0.0 0.0 0.00 0.00 0.00 0
20260510172228 87 359 0.0 0.0 0.00 0.00 0.00 0
20260510171727 88 359 0.0 0.0 0.00 0.00 0.00 0
20260510170728 86 359 0.0 0.0 0.00 0.00 0.00 0
20260510170227 86 256 0.0 0.0 0.00 0.00 0.00 0
20260510165728 86 256 0.0 0.0 0.00 0.00 0.00 0
20260510165227 86 256 0.0 0.0 0.00 0.00 0.00 0
20260510164727 86 256 0.0 0.0 0.00 0.00 0.00 0
20260510164228 86 256 0.0 0.0 0.00 0.00 0.00 0
20260510163728 86 263 0.0 0.0 0.00 0.00 0.00 0
20260510163228 86 263 0.0 0.0 0.00 0.00 0.00 0
20260510162728 87 359 0.0 0.0 0.00 0.00 0.00 0
20260510161728 86 359 0.0 0.0 0.00 0.00 0.00 0
20260510161227 86 359 0.0 0.0 0.00 0.00 0.00 0
20260510160727 85 359 0.0 0.0 0.00 0.00 0.00 0
20260510160228 85 359 0.0 0.0 0.00 0.00 0.00 0
20260510155727 85 359 0.0 0.0 0.00 0.00 0.00 0
20260510155228 84 359 0.0 0.0 0.00 0.00 0.00 0
20260510154728 84 359 0.0 0.0 0.00 0.00 0.00 0
20260510154228 83 359 0.0 0.0 0.00 0.00 0.00 0
20260510153728 83 359 0.0 0.0 0.00 0.00 0.00 0
20260510153228 83 359 0.0 0.0 0.00 0.00 0.00 0
20260510152728 82 359 0.0 0.0 0.00 0.00 0.00 0
20260510152227 82 359 0.0 0.0 0.00 0.00 0.00 0
20260510151727 82 359 0.0 0.0 0.00 0.00 0.00 0
20260510151227 81 359 0.0 0.0 0.00 0.00 0.00 0
20260510150728 81 359 0.0 0.0 0.00 0.00 0.00 0
20260510150228 81 359 0.0 0.0 0.00 0.00 0.00 0
20260510145728 81 359 0.0 0.0 0.00 0.00 0.00 0
20260510145227 80 359 0.0 0.0 0.00 0.00 0.00 0
20260510144727 80 359 0.0 0.0 0.00 0.00 0.00 0
20260510144227 80 359 0.0 0.0 0.00 0.00 0.00 0
20260510143728 79 359 0.0 0.0 0.00 0.00 0.00 0
20260510143227 79 359 0.0 0.0 0.00 0.00 0.00 0
20260510142728 79 359 0.0 0.0 0.00 0.00 0.00 0
20260510142227 79 359 0.0 0.0 0.00 0.00 0.00 0
20260510141727 79 359 0.0 0.0 0.00 0.00 0.00 0
20260510141227 78 359 0.0 0.0 0.00 0.00 0.00 0
20260510140728 78 359 0.0 0.0 0.00 0.00 0.00 0
20260510140228 78 359 0.0 0.0 0.00 0.00 0.00 0
20260510135728 78 359 0.0 0.0 0.00 0.00 0.00 0
20260510135228 78 359 0.0 0.0 0.00 0.00 0.00 0
20260510134727 78 359 0.0 0.0 0.00 0.00 0.00 0
20260510134228 78 359 0.0 0.0 0.00 0.00 0.00 0
20260510133728 78 359 0.0 0.0 0.00 0.00 0.00 0
20260510133228 78 359 0.0 0.0 0.00 0.00 0.00 0
20260510132728 77 359 0.0 0.0 0.00 0.00 0.00 0
20260510132228 78 359 0.0 0.0 0.00 0.00 0.00 0
20260510131728 78 359 0.0 0.0 0.00 0.00 0.00 0
20260510131228 78 359 0.0 0.0 0.00 0.00 0.00 0
20260510130728 78 359 0.0 0.0 0.00 0.00 0.00 0
20260510130228 79 359 0.0 0.0 0.00 0.00 0.00 0
20260510125729 79 359 0.0 0.0 0.00 0.00 0.00 0
20260510125228 79 359 0.0 0.0 0.00 0.00 0.00 0
20260510124728 79 359 0.0 0.0 0.00 0.00 0.00 0
20260510124229 79 359 0.0 0.0 0.00 0.00 0.00 0
20260510123728 79 359 0.0 0.0 0.00 0.00 0.00 0
20260510123227 79 359 0.0 0.0 0.00 0.00 0.00 0
20260510122728 79 359 0.0 0.0 0.00 0.00 0.00 0
20260510122228 80 359 0.0 0.0 0.00 0.00 0.00 0
20260510121727 80 359 0.0 0.0 0.00 0.00 0.00 0
20260510121228 80 359 0.0 0.0 0.00 0.00 0.00 0
20260510120728 80 359 0.0 0.0 0.00 0.00 0.00 0
20260510120228 80 359 0.0 0.0 0.00 0.00 0.00 0
20260510115728 80 359 0.0 0.0 0.00 0.00 0.00 0
20260510115227 80 359 0.0 0.0 0.00 0.00 0.00 0
20260510114727 80 359 0.0 0.0 0.00 0.00 0.00 0
20260510114228 80 359 0.0 0.0 0.00 0.00 0.00 0
20260510113727 80 359 0.0 0.0 0.00 0.00 0.00 0
20260510113228 80 359 0.0 0.0 0.00 0.00 0.00 0
20260510112728 81 359 0.0 0.0 0.00 0.00 0.00 0
20260510112228 81 359 0.0 0.0 0.00 0.00 0.00 0
20260510111726 81 359 0.0 0.0 0.00 0.00 0.00 0
20260510111227 81 359 0.0 0.0 0.00 0.00 0.00 0
20260510110727 81 359 0.0 0.0 0.00 0.00 0.00 0
20260510110228 81 359 0.0 0.0 0.00 0.00 0.00 0
20260510105727 81 359 0.0 0.0 0.00 0.00 0.00 0
20260510105227 81 359 0.0 0.0 0.00 0.00 0.00 0
20260510104227 81 359 0.0 0.0 0.00 0.00 0.00 0
20260510103728 82 359 0.0 0.0 0.00 0.00 0.00 0
20260510103228 82 359 0.0 0.0 0.00 0.00 0.00 0
20260510102728 82 359 0.0 0.0 0.00 0.00 0.00 0
20260510102228 82 359 0.0 0.0 0.00 0.00 0.00 0
20260510101727 82 359 0.0 0.0 0.00 0.00 0.00 0
20260510101227 82 359 0.0 0.0 0.00 0.00 0.00 0
20260510100727 82 359 0.0 0.0 0.00 0.00 0.00 0
20260510100227 82 359 0.0 0.0 0.00 0.00 0.00 0
20260510095727 81 359 0.0 0.0 0.00 0.00 0.00 0
20260510095227 81 359 0.0 0.0 0.00 0.00 0.00 0
20260510094726 81 359 0.0 0.0 0.00 0.00 0.00 0
20260510094226 81 359 0.0 0.0 0.00 0.00 0.00 0
20260510093726 81 359 0.0 0.0 0.00 0.00 0.00 0
20260510093227 81 359 0.0 0.0 0.00 0.00 0.00 0
20260510092728 82 359 0.0 0.0 0.00 0.00 0.00 0
20260510092227 82 359 0.0 0.0 0.00 0.00 0.00 0
20260510091728 82 359 0.0 0.0 0.00 0.00 0.00 0
20260510091227 82 359 0.0 0.0 0.00 0.00 0.00 0
20260510090726 82 359 0.0 0.0 0.00 0.00 0.00 0
20260510090227 82 359 0.0 0.0 0.00 0.00 0.00 0
20260510085727 82 359 0.0 0.0 0.00 0.00 0.00 0
20260510085227 82 359 0.0 0.0 0.00 0.00 0.00 0
20260510084726 82 359 0.0 0.0 0.00 0.00 0.00 0
20260510084227 81 359 0.0 0.0 0.00 0.00 0.00 0
20260510083727 81 359 0.0 0.0 0.00 0.00 0.00 0
20260510083227 81 359 0.0 0.0 0.00 0.00 0.00 0
20260510082727 80 359 0.0 0.0 0.00 0.00 0.00 0
20260510082227 80 359 0.0 0.0 0.00 0.00 0.00 0
20260510081727 80 359 0.0 0.0 0.00 0.00 0.00 0
20260510081226 80 359 0.0 0.0 0.00 0.00 0.00 0
20260510080727 80 359 0.0 0.0 0.00 0.00 0.00 0
20260510080227 80 359 0.0 0.0 0.00 0.00 0.00 0
20260510075726 80 359 0.0 0.0 0.00 0.00 0.00 0
20260510075227 80 359 0.0 0.0 0.00 0.00 0.00 0
20260510074727 80 359 0.0 0.0 0.00 0.00 0.00 0
20260510074226 80 359 0.0 0.0 0.00 0.00 0.00 0
20260510073726 80 359 0.0 0.0 0.00 0.00 0.00 0
20260510073227 80 359 0.0 0.0 0.00 0.00 0.00 0
20260510072727 80 359 0.0 0.0 0.00 0.00 0.00 0
20260510072227 80 359 0.0 0.0 0.00 0.00 0.00 0
20260510071726 80 359 0.0 0.0 0.00 0.00 0.00 0
20260510071227 80 359 0.0 0.0 0.00 0.00 0.00 0
20260510070727 80 359 0.0 0.0 0.00 0.00 0.00 0
20260510070227 80 359 0.0 0.0 0.00 0.00 0.00 0
20260510065727 80 359 0.0 0.0 0.00 0.00 0.00 0
20260510065227 80 359 0.0 0.0 0.00 0.00 0.00 0
20260510064727 80 359 0.0 0.0 0.00 0.00 0.00 0
20260510064227 80 359 0.0 0.0 0.00 0.00 0.00 0
20260510063727 81 359 0.0 0.0 0.00 0.00 0.00 0
20260510063228 81 359 0.0 0.0 0.00 0.00 0.00 0
20260510062726 81 359 0.0 0.0 0.00 0.00 0.00 0
20260510062226 80 359 0.0 0.0 0.00 0.00 0.00 0
20260510061726 81 359 0.0 0.0 0.00 0.00 0.00 0
20260510061226 81 359 0.0 0.0 0.00 0.00 0.00 0
20260510060726 81 359 0.0 0.0 0.00 0.00 0.00 0
20260510060226 81 359 0.0 0.0 0.00 0.00 0.00 0
20260510055726 81 359 0.0 0.0 0.00 0.00 0.00 0
20260510055226 81 359 0.0 0.0 0.00 0.00 0.00 0
20260510054726 81 359 0.0 0.0 0.00 0.00 0.00 0
20260510054227 81 359 0.0 0.0 0.00 0.00 0.00 0
20260510053727 81 359 0.0 0.0 0.00 0.00 0.00 0
20260510053227 82 359 0.0 0.0 0.00 0.00 0.00 0
20260510052726 82 359 0.0 0.0 0.00 0.00 0.00 0
20260510052227 82 359 0.0 0.0 0.00 0.00 0.00 0
20260510051727 82 359 0.0 0.0 0.00 0.00 0.00 0
20260510051226 82 359 0.0 0.0 0.00 0.00 0.00 0
20260510050726 83 359 0.0 0.0 0.00 0.00 0.00 0
20260510050226 83 359 0.0 0.0 0.00 0.00 0.00 0
20260510045726 83 359 0.0 0.0 0.00 0.00 0.00 0
20260510045226 83 359 0.0 0.0 0.00 0.00 0.00 0
20260510044726 83 359 0.0 0.0 0.00 0.00 0.00 0
20260510044226 83 359 0.0 0.0 0.00 0.00 0.00 0
20260510043726 84 359 0.0 0.0 0.00 0.00 0.00 0
20260510043226 84 359 0.0 0.0 0.00 0.00 0.00 0
20260510042726 84 359 0.0 0.0 0.00 0.00 0.00 0
20260510042227 83 359 0.0 0.0 0.00 0.00 0.00 0
20260510041726 84 359 0.0 0.0 0.00 0.00 0.00 0
20260510041226 84 359 0.0 0.0 0.00 0.00 0.00 0
20260510040726 84 359 0.0 0.0 0.00 0.00 0.00 0
20260510040226 84 359 0.0 0.0 0.00 0.00 0.00 0
20260510035726 84 359 0.0 0.0 0.00 0.00 0.00 0
20260510035226 84 359 0.0 0.0 0.00 0.00 0.00 0
20260510034726 84 359 0.0 0.0 0.00 0.00 0.00 0
20260510034228 84 359 0.0 0.0 0.00 0.00 0.00 0
20260510033726 84 359 0.0 0.0 0.00 0.00 0.00 0
20260510033226 84 359 0.0 0.0 0.00 0.00 0.00 0
20260510032726 85 359 0.0 0.0 0.00 0.00 0.00 0
20260510032226 85 359 0.0 0.0 0.00 0.00 0.00 0
20260510031726 84 359 0.0 0.0 0.00 0.00 0.00 0
20260510031226 84 359 0.0 0.0 0.00 0.00 0.00 0
20260510030726 84 359 0.0 0.0 0.00 0.00 0.00 0
20260510030227 84 359 0.0 0.0 0.00 0.00 0.00 0
20260510025726 84 359 0.0 0.0 0.00 0.00 0.00 0
20260510025226 85 359 0.0 0.0 0.00 0.00 0.00 0
20260510024726 85 359 0.0 0.0 0.00 0.00 0.00 0
20260510024226 85 359 0.0 0.0 0.00 0.00 0.00 0
20260510023726 85 359 0.0 0.0 0.00 0.00 0.00 0
20260510023226 85 359 0.0 0.0 0.00 0.00 0.00 0
20260510022726 85 359 0.0 0.0 0.00 0.00 0.00 0
20260510022226 85 359 0.0 0.0 0.00 0.00 0.00 0
20260510021726 85 326 0.0 0.0 0.00 0.00 0.00 0
20260510021227 86 326 0.0 0.0 0.00 0.00 0.00 0
20260510020726 86 326 0.0 0.0 0.00 0.00 0.00 0
20260510020226 86 326 0.0 0.0 0.00 0.00 0.00 0
20260510015726 86 326 0.0 0.0 0.00 0.00 0.00 0
20260510015226 86 326 0.0 0.0 0.00 0.00 0.00 0
20260510014726 87 326 0.0 0.0 0.00 0.00 0.00 0
20260510014226 87 326 0.0 0.0 0.00 0.00 0.00 0
20260510013726 87 326 0.0 0.0 0.00 0.00 0.00 0
20260510013226 88 326 0.0 0.0 0.00 0.00 0.00 0
20260510012727 89 326 0.0 0.0 0.00 0.00 0.00 0
20260510012227 89 326 0.0 0.0 0.00 0.00 0.00 0
20260510011727 90 326 0.0 0.0 0.00 0.00 0.00 0
20260510011226 90 326 0.0 0.0 0.00 0.00 0.00 0
20260510010726 91 326 0.0 0.0 0.00 0.00 0.00 0
20260510010226 91 326 0.0 0.0 0.00 0.00 0.00 0
20260510005727 91 326 0.0 0.0 0.00 0.00 0.00 0
20260510005226 92 326 0.0 0.0 0.00 0.00 0.00 0
20260510004726 92 326 0.0 0.0 0.00 0.00 0.00 0
20260510004226 92 326 0.0 0.0 0.00 0.00 0.00 0
20260510003726 92 326 0.0 0.0 0.00 0.00 0.00 0
20260510003226 93 326 0.0 0.0 0.00 0.00 0.00 0
20260510002726 93 326 0.0 0.0 0.00 0.00 0.00 0
20260510002226 93 326 0.0 0.0 0.00 0.00 0.00 0
20260510001726 93 326 0.0 0.0 0.00 0.00 0.00 0
20260510001227 94 326 0.0 0.0 0.00 0.00 0.00 0
20260510000726 94 326 0.0 0.0 0.00 0.00 0.00 0
20260510000227 95 326 0.0 0.0 0.00 0.00 0.00 0
20260509235726 95 326 0.0 0.0 0.00 0.00 0.00 0
20260509235226 94 326 0.0 0.0 0.00 0.00 0.00 0
20260509234726 94 326 0.0 0.0 0.00 0.00 0.00 0